Horseshoe Bay, TX

5:33 AM MDT on August 22, 2017 (GMT -0600)
Horseshoe Bay

Weather History for KDZB - February, 2014

Change the Weather History Date:

Saturday, February 22, 2014

  Actual Average (KBMQ) Record (KBMQ)
Temperature  
Mean Temperature 58 °F -  
Max Temperature 73 °F 60 °F 86 °F (2017)
Min Temperature 42 °F 41 °F 27 °F (2009)
Degree Days  
Heating Degree Days 8    
Growing Degree Days 8 (Base 50)    
Moisture  
Dew Point 44 °F    
Average Humidity 59    
Maximum Humidity 85    
Minimum Humidity 38    
Precipitation  
Precipitation 0.00 in - - ()
Sea Level Pressure  
Sea Level Pressure 29.94 in    
Wind  
Wind Speed 5 mph (South)    
Max Wind Speed 13 mph    
Max Gust Speed 21 mph    
Visibility 10 miles    
Events      
Averages and records for this station are not official NWS values.
T = Trace of Precipitation, MM = Missing Value Source: NWS Daily Summary

Daily Weather History Graph

Daily Weather History Graph

Search for Another Location

Airport or City:

Trip Planner

Search our weather history database for the weather conditions in past years. The results will help you decide how hot, cold, wet, or windy it might be!

Date:

Astronomy

Feb. 22, 2014 Rise Set
Actual Time 6:07 AM MST 5:27 PM MST
Civil Twilight 5:42 AM MST 5:51 PM MST
Nautical Twilight 5:14 AM MST 6:19 PM MST
Astronomical Twilight 4:46 AM MST 6:47 PM MST
Moon No Moon Rise 10:49 AM MST
Length of Visible Light 12h 08m
Length of Day
11h 20m
Waning Gibbous, 49% of the Moon is Illuminated
Feb 22
Waning Gibbous
Mar 1
New
Mar 8
First Quarter
Mar 16
Full
Mar 23
Last Quarter

Hourly Weather History & Observations

Time (MST) Temp. Windchill Dew Point Humidity Pressure Visibility Wind Dir Wind Speed Gust Speed Precip Events Conditions
12:15 AM 50.0 °F - 25.7 °F 39% 30.01 in 10.0 mi SSE 6.9 mph - N/A   Clear
12:35 AM 49.3 °F - 27.5 °F 43% 30.00 in 10.0 mi SE 5.8 mph - N/A   Clear
12:55 AM 49.1 °F - 28.4 °F 45% 30.01 in 10.0 mi Calm Calm - N/A   Clear
1:15 AM 45.7 °F - 27.1 °F 48% 30.01 in 10.0 mi Calm Calm - N/A   Clear
1:35 AM 45.9 °F 44.6 °F 27.7 °F 49% 30.00 in 10.0 mi East 3.5 mph - N/A   Clear
1:55 AM 45.7 °F - 28.0 °F 50% 29.99 in 10.0 mi Calm Calm - N/A   Clear
2:15 AM 44.8 °F - 28.4 °F 53% 29.99 in 10.0 mi Calm Calm - N/A   Clear
2:35 AM 43.9 °F 42.3 °F 28.8 °F 55% 29.98 in 10.0 mi ESE 3.5 mph - N/A   Clear
2:55 AM 43.0 °F - 28.9 °F 58% 29.98 in 10.0 mi Calm Calm - N/A   Clear
3:15 AM 42.8 °F - 29.3 °F 59% 29.98 in 10.0 mi Calm Calm - N/A   Clear
3:35 AM 43.7 °F 42.1 °F 30.0 °F 59% 29.97 in 10.0 mi SE 3.5 mph - N/A   Clear
3:55 AM 44.1 °F 42.5 °F 30.2 °F 58% 29.98 in 10.0 mi East 3.5 mph - N/A   Clear
4:15 AM 44.1 °F - 30.4 °F 59% 29.98 in 10.0 mi Calm Calm - N/A   Clear
4:35 AM 44.2 °F - 31.1 °F 60% 29.98 in 10.0 mi Calm Calm - N/A   Clear
4:55 AM 44.1 °F - 31.5 °F 61% 29.98 in 10.0 mi Calm Calm - N/A   Clear
5:15 AM 43.7 °F - 31.3 °F 62% 29.99 in 10.0 mi Calm Calm - N/A   Clear
5:35 AM 43.0 °F - 31.5 °F 64% 29.99 in 10.0 mi Calm Calm - N/A   Clear
5:55 AM 42.1 °F - 31.6 °F 67% 29.99 in 10.0 mi Calm Calm - N/A   Clear
6:15 AM 42.4 °F - 32.0 °F 67% 29.99 in 10.0 mi Calm Calm - N/A   Clear
6:35 AM 43.3 °F - 32.2 °F 65% 29.99 in 10.0 mi Calm Calm - N/A   Clear
6:55 AM 44.1 °F - 32.9 °F 65% 30.00 in 10.0 mi Calm Calm - N/A   Clear
7:15 AM 45.5 °F - 34.0 °F 64% 30.00 in 10.0 mi Calm Calm - N/A   Clear
7:35 AM 46.4 °F - 35.1 °F 65% 30.01 in 10.0 mi Calm Calm - N/A   Clear
7:55 AM 48.6 °F - 36.1 °F 62% 30.01 in 10.0 mi ESE 3.5 mph - N/A   Clear
8:15 AM 50.2 °F - 37.8 °F 62% 30.01 in 10.0 mi SE 8.1 mph - N/A   Clear
8:35 AM 53.4 °F - 40.1 °F 61% 30.01 in 10.0 mi SSE 5.8 mph - N/A   Clear
8:55 AM 57.2 °F - 43.5 °F 60% 30.00 in 10.0 mi South 6.9 mph - N/A   Clear
9:15 AM 59.4 °F - 45.9 °F 61% 30.00 in 10.0 mi South 8.1 mph 16.1 mph N/A   Clear
9:35 AM 61.3 °F - 46.4 °F 58% 30.00 in 10.0 mi South 8.1 mph - N/A   Clear
9:55 AM 62.1 °F - 46.9 °F 58% 29.99 in 10.0 mi South 5.8 mph - N/A   Clear
10:15 AM 63.3 °F - 47.7 °F 57% 29.99 in 10.0 mi South 10.4 mph - N/A   Clear
10:35 AM 67.6 °F - 48.2 °F 50% 29.98 in 10.0 mi South 9.2 mph - N/A   Clear
10:55 AM 67.8 °F - 47.1 °F 47% 29.97 in 10.0 mi South 12.7 mph 18.4 mph N/A   Clear
11:15 AM 69.4 °F - 47.3 °F 45% 29.96 in 10.0 mi South 9.2 mph 16.1 mph N/A   Clear
11:35 AM 72.0 °F - 47.5 °F 42% 29.95 in 10.0 mi South 9.2 mph - N/A   Clear
11:55 AM 71.2 °F - 46.9 °F 42% 29.93 in 10.0 mi South 9.2 mph 18.4 mph N/A   Clear
12:15 PM 70.9 °F - 46.8 °F 42% 29.92 in 10.0 mi South 9.2 mph - N/A   Clear
12:35 PM 72.0 °F - 46.4 °F 40% 29.91 in 10.0 mi South 12.7 mph 18.4 mph N/A   Clear
12:55 PM 71.8 °F - 46.6 °F 41% 29.90 in 10.0 mi South 10.4 mph 17.3 mph N/A   Clear
1:15 PM 72.3 °F - 46.6 °F 40% 29.89 in 10.0 mi South 10.4 mph 17.3 mph N/A   Clear
1:35 PM 73.8 °F - 46.9 °F 38% 29.88 in 10.0 mi South 5.8 mph 17.3 mph N/A   Clear
1:55 PM 73.4 °F - 47.5 °F 40% 29.88 in 10.0 mi South 12.7 mph 19.6 mph N/A   Clear
2:15 PM 72.5 °F - 49.1 °F 44% 29.87 in 10.0 mi South 9.2 mph 16.1 mph N/A   Clear
2:35 PM 73.6 °F - 49.8 °F 43% 29.87 in 10.0 mi South 8.1 mph 19.6 mph N/A   Clear
2:55 PM 73.6 °F - 49.6 °F 43% 29.86 in 10.0 mi South 10.4 mph 17.3 mph N/A   Clear
3:15 PM 73.4 °F - 50.2 °F 44% 29.85 in 10.0 mi South 9.2 mph 18.4 mph N/A   Clear
3:35 PM 73.8 °F - 50.2 °F 43% 29.85 in 10.0 mi South 8.1 mph - N/A   Clear
4:00 PM 72.7 °F - 50.2 °F 45% 29.85 in 10.0 mi South 10.4 mph 20.7 mph N/A   Clear
4:15 PM 71.6 °F - 50.5 °F 47% 29.85 in 10.0 mi South 11.5 mph 17.3 mph N/A   Clear
4:35 PM 70.7 °F - 51.3 °F 50% 29.85 in 10.0 mi South 9.2 mph - N/A   Clear
4:55 PM 69.4 °F - 52.2 °F 54% 29.85 in 10.0 mi South 6.9 mph - N/A   Clear
5:15 PM 68.9 °F - 52.9 °F 57% 29.85 in 10.0 mi South 5.8 mph 17.3 mph N/A   Clear
5:35 PM 67.3 °F - 53.1 °F 60% 29.85 in 10.0 mi South 10.4 mph - N/A   Clear
5:55 PM 65.5 °F - 53.6 °F 65% 29.86 in 10.0 mi South 6.9 mph - N/A   Clear
6:15 PM 64.4 °F - 53.6 °F 68% 29.86 in 10.0 mi South 4.6 mph - N/A   Clear
6:35 PM 64.0 °F - 54.0 °F 70% 29.86 in 10.0 mi South 6.9 mph - N/A   Clear
6:55 PM 63.7 °F - 54.1 °F 71% 29.88 in 10.0 mi South 3.5 mph - N/A   Clear
7:15 PM 63.5 °F - 54.5 °F 72% 29.89 in 10.0 mi South 5.8 mph - N/A   Scattered Clouds
7:35 PM 64.6 °F - 55.0 °F 71% 29.90 in 10.0 mi South 5.8 mph - N/A   Overcast
7:55 PM 64.9 °F - 55.2 °F 71% 29.90 in 10.0 mi South 6.9 mph - N/A   Overcast
8:15 PM 65.1 °F - 55.2 °F 70% 29.90 in 10.0 mi South 10.4 mph 17.3 mph N/A   Overcast
8:35 PM 64.8 °F - 55.0 °F 71% 29.90 in 10.0 mi South 6.9 mph 18.4 mph N/A   Mostly Cloudy
8:55 PM 63.9 °F - 54.9 °F 72% 29.91 in 10.0 mi SSW 3.5 mph - N/A   Scattered Clouds
9:15 PM 63.1 °F - 54.9 °F 74% 29.91 in 10.0 mi South 5.8 mph - N/A   Scattered Clouds
9:35 PM 62.4 °F - 54.9 °F 76% 29.91 in 10.0 mi South 5.8 mph - N/A   Clear
9:55 PM 61.7 °F - 54.5 °F 77% 29.92 in 10.0 mi Calm Calm - N/A   Clear
10:15 PM 58.5 °F - 53.6 °F 84% 29.92 in 10.0 mi Calm Calm - N/A   Scattered Clouds
10:35 PM 56.7 °F - 52.0 °F 84% 29.92 in 10.0 mi SSE 3.5 mph - N/A   Mostly Cloudy
10:55 PM 59.7 °F - 55.2 °F 85% 29.92 in 10.0 mi South 4.6 mph - N/A   Mostly Cloudy
11:15 PM 61.3 °F - 55.8 °F 82% 29.91 in 10.0 mi Calm Calm - N/A   Overcast
11:35 PM 60.8 °F - 55.4 °F 82% 29.91 in 10.0 mi South 5.8 mph - N/A   Mostly Cloudy
11:55 PM 60.3 °F - 55.8 °F 85% 29.91 in 10.0 mi Calm Calm - N/A   Scattered Clouds